[[{"header":{"parameterUnit":"m.s-1","parameterCategory":1,"la1":30.2991,"la2":30.254,"lo1":-89.0895,"lo2":-89.0444,"dy":0.0017,"dx":0.0017,"nx":28,"ny":28,"refTime":"2025-03-08T09:00:00:Z","depth":0,"parameterNumber":2,"parameterNumberName":"U-component_of_WINDS"},"data":[0,0,0,0,0,0,0,0,0,0,0,0,0,0,0,0,0,0,0,0,0,0,0,0,0,0,0,0,0,0,0,0,0,0,0,0,0,0,0,0,0,0,0,0,0,0,0,0,0,0,0,0,0,0,0,0,0,0,-4.9224,-4.9224,0,-4.9257,-4.9257,-4.9257,-4.9137,-4.9133,-4.9129,-4.9126,-4.9165,-4.9169,-4.9174,0,0,0,0,0,0,0,0,0,0,0,0,0,-4.9063,-4.9067,-4.9224,-4.9224,-4.9225,-4.9257,-4.9257,-4.9257,-4.9137,-4.9133,-4.9128,-4.9124,-4.9163,-4.9169,-4.9174,0,0,0,0,0,0,0,0,0,0,0,0,0,-4.9119,-4.9068,-4.9224,-4.9168,-4.9164,-4.9256,-4.9257,-4.9258,-4.9138,-4.9133,-4.9127,-4.9122,-4.9162,-4.9168,-4.9175,-4.9324,0,0,-4.9195,-4.9198,0,0,0,0,0,0,0,0,-4.9116,-4.9125,-4.9176,-4.9172,-4.9167,-4.9187,-4.9214,-4.928,-4.914,-4.9148,-4.9126,-4.912,-4.9177,-4.9182,-4.92,-4.9326,-4.9328,-4.9195,-4.9199,-4.9202,-4.9204,0,0,0,0,0,0,0,-4.9112,-4.9122,-4.9237,-4.9177,-4.9172,-4.9144,-4.9146,-4.9226,-4.9193,-4.9147,-4.9138,-4.9143,-4.9174,-4.9194,-4.92,-4.9328,-4.9195,-4.9201,-4.9205,-4.9208,-4.9581,-4.9587,0,0,0,0,0,0,-4.9115,-4.912,-4.9236,-4.9238,-4.9127,-4.9151,-4.9153,-4.9186,-4.9191,-4.9187,-4.9148,-4.9138,-4.9185,-4.9193,-4.9201,-4.9379,-4.9202,-4.9208,-4.9212,-4.9575,-4.9583,-4.9589,0,0,0,0,0,0,-4.9112,-4.9126,-4.9234,-4.9177,-4.9188,-4.916,-4.9198,-4.919,-4.921,-4.9192,-4.9186,-4.9175,-4.9181,-4.9192,-4.9295,-4.9378,-4.9211,-4.9217,-4.9568,-4.9578,-4.9586,-4.9734,0,0,0,0,0,0,-4.9107,-4.9126,-4.918,-4.9179,-4.9192,-4.9326,-4.9203,-4.9194,-4.9221,-4.9208,-4.9216,-4.9212,-4.9178,-4.9286,-4.9301,-4.9384,-4.9223,-4.9561,-4.9573,-4.9583,-4.9721,-4.9747,-4.9768,0,0,0,0,0,-4.9102,-4.9221,-4.9184,-4.9198,-4.926,-4.9331,-4.9339,-4.9296,-4.9228,-4.9285,-4.9273,-4.9212,-4.9366,-4.9297,-4.9314,-4.94,-4.9555,-4.9569,-4.9582,-4.9711,-4.9742,-4.9768,0,0,0,0,0,0,-4.9235,-4.922,-4.9178,-4.93,-4.9318,-4.931,-4.938,-4.9329,-4.9368,-4.9354,-4.9301,-4.9304,-4.9417,-4.9418,-4.9342,-4.9547,-4.9449,-4.9467,-4.9542,-4.9571,-4.9594,-4.9592,-4.9228,0,0,0,0,0,-4.9278,-4.9335,-4.932,-4.9429,-4.944,-4.9409,-4.9438,-4.9404,-4.942,-4.9428,-4.9424,-4.9444,-4.9498,-4.9534,-4.9582,-4.972,-4.9722,-4.9788,-4.9812,-4.9831,-4.9848,-4.9924,-4.9954,-4.9633,-4.9633,-4.9633,0,0,-4.9368,-4.9367,-4.9407,-4.9456,-4.9465,-4.9529,-4.9416,-4.9487,-4.9534,-4.9439,-4.9536,-4.9535,-4.9554,-4.9676,-4.973,-4.9681,-4.9937,-4.9848,-4.9864,-4.987,-4.9941,-4.9972,-4.9999,-4.9642,-4.9641,-4.9639,0,0,-4.9566,-4.9569,-4.9662,-4.9674,-4.9689,-4.9668,-4.9691,-4.9692,-4.9687,-4.9783,-4.9714,-4.977,-4.9862,-4.9879,-4.99,-5.0107,-5.0053,-5.0124,-5.0248,-5.0323,-5.0348,-5.037,-5.0447,-5.0475,-5.014,-5.014,-5.0141,0,-4.9676,-4.9767,-4.9716,-4.9792,-4.9817,-4.9733,-4.9828,-4.9843,-4.9874,-4.9895,-4.9838,-4.9954,-4.9961,-5.0087,-5.0138,-5.0157,-5.0183,-5.0123,-5.0348,-5.037,-5.039,-5.0463,-5.0491,-5.0149,-5.0148,-5.0147,-5.0146,0,-4.9904,-4.9968,-5.0041,-5.0073,-5.0105,-5.0191,-5.0156,-5.0196,-5.0159,-5.0144,-5.0245,-5.0251,-5.0299,-5.0326,-5.0291,-5.045,-5.0419,-5.0357,-5.0259,-5.043,-5.0498,-5.0525,-5.0162,-5.0158,-5.0156,-5.0154,0,0,-5.0185,-5.0189,-5.0217,-5.0231,-5.0243,-5.0293,-5.0376,-5.0422,-5.0459,-5.0484,-5.0554,-5.0634,-5.0577,-5.0602,-5.0568,-5.0634,-5.0801,-5.0563,-5.0563,-5.061,-5.0979,-5.1027,-5.106,-5.0764,-5.0769,-5.0773,-5.0978,0,-5.0381,-5.0521,-5.0479,-5.0621,-5.0682,-5.0603,-5.0676,-5.0693,-5.0682,-5.0733,-5.0722,-5.0781,-5.07,-5.0714,-5.0776,-5.0767,-5.0874,-5.0751,-5.0832,-5.0835,-5.0831,-5.1095,-5.1146,-5.1339,-5.1004,-5.1008,-5.1011,0,-5.0628,-5.0662,-5.081,-5.0814,-5.0838,-5.0904,-5.0944,-5.0993,-5.1012,-5.1,-5.1028,-5.0981,-5.1065,-5.0966,-5.1083,-5.1,-5.1031,-5.1032,-5.1038,-5.1046,-5.0935,-5.1112,-5.1399,-5.143,-5.1052,-5.1048,-5.1045,0,-5.0822,-5.0905,-5.1005,-5.1019,-5.1026,-5.1075,-5.108,-5.1093,-5.1124,-5.116,-5.1181,-5.1227,-5.1253,-5.1291,-5.1259,-5.1188,-5.1383,-5.1279,-5.1377,-5.1379,-5.1423,-5.1421,-5.1722,-5.1439,-5.1439,-5.1438,-5.1438,0,-5.1046,-5.1141,-5.1092,-5.1154,-5.1259,-5.1211,-5.1316,-5.1313,-5.1325,-5.1387,-5.1322,-5.1382,-5.1335,-5.1391,-5.1367,-5.147,-5.1481,-5.1476,-5.1469,-5.1483,-5.1484,-5.1504,-5.1491,-5.1446,-5.1444,-5.1443,-5.1441,0,-5.1281,-5.1252,-5.1357,-5.1354,-5.1356,-5.1434,-5.1433,-5.1492,-5.1476,-5.1555,-5.1571,-5.1548,-5.1612,-5.1583,-5.165,-5.1633,-5.1766,-5.174,-5.176,-5.1754,-5.1855,-5.1847,-5.2181,-5.2224,-5.1911,-5.1914,-5.1917,0,-5.1427,-5.1498,-5.1504,-5.154,-5.1549,-5.1608,-5.164,-5.1596,-5.1632,-5.166,-5.1716,-5.1774,-5.1817,-5.1923,-5.1914,-5.1965,-5.1941,-5.2055,-5.1949,-5.1962,-5.1947,-5.1944,-5.1952,-5.2077,-5.2081,-5.2083,-5.2086,0,-5.169,-5.1673,-5.172,-5.1764,-5.1804,-5.1837,-5.1864,-5.1898,-5.1855,-5.19,-5.1963,-5.1997,-5.2065,-5.2125,-5.217,-5.2178,-5.2127,-5.2119,-5.2145,-5.2162,-5.2172,-5.2171,-5.1821,-5.2112,-5.2109,-5.2108,-5.2106,-5.2105,-5.1887,-5.1947,-5.1961,-5.2017,-5.2033,-5.2061,-5.2116,-5.2108,-5.216,-5.2211,-5.2182,-5.2258,-5.2277,-5.2333,-5.2348,-5.2408,-5.2363,-5.24,-5.241,-5.2421,-5.2435,-5.216,-5.2416,-5.2415,-5.2414,-5.2413,-5.2413,0,-5.2149,-5.2154,-5.2206,-5.2246,-5.2292,-5.2237,-5.2265,-5.2307,-5.2374,-5.2395,-5.244,-5.2515,-5.2572,-5.2568,-5.2621,-5.267,-5.2649,-5.2686,-5.2683,-5.2687,-5.247,-5.2444,-5.2703,-5.2703,-5.2703,-5.2703,-5.2703,-5.2703,-5.2291,-5.2391,-5.2376,-5.2485,-5.2489,-5.2562,-5.2583,-5.2609,-5.2626,-5.2712,-5.2759,-5.2755,-5.2768,-5.2822,-5.2874,-5.2871,-5.2895,-5.2943,-5.2932,-5.273,-5.2702,-5.2674,-5.2649,-5.2947,-5.2948,-5.3143,-5.3145,-5.3147]},{"header":{"parameterUnit":"m.s-1","parameterCategory":1,"la1":30.2991,"la2":30.254,"lo1":-89.0895,"lo2":-89.0444,"dy":0.0017,"dx":0.0017,"nx":28,"ny":28,"refTime":"2025-03-08T09:00:00:Z","depth":0,"parameterNumber":3,"parameterNumberName":"V-component_of_WINDS"},"data":[0,0,0,0,0,0,0,0,0,0,0,0,0,0,0,0,0,0,0,0,0,0,0,0,0,0,0,0,0,0,0,0,0,0,0,0,0,0,0,0,0,0,0,0,0,0,0,0,0,0,0,0,0,0,0,0,0,0,-0.6094,-0.6094,0,-0.6101,-0.6101,-0.6101,-0.6101,-0.6101,-0.61,-0.61,-0.6107,-0.6108,-0.6108,0,0,0,0,0,0,0,0,0,0,0,0,0,-0.6081,-0.6082,-0.6094,-0.6094,-0.6095,-0.6101,-0.6101,-0.6101,-0.6101,-0.6101,-0.61,-0.61,-0.6107,-0.6108,-0.6108,0,0,0,0,0,0,0,0,0,0,0,0,0,-0.6087,-0.6082,-0.6094,-0.6095,-0.6095,-0.6101,-0.6101,-0.6101,-0.6101,-0.6101,-0.61,-0.61,-0.6107,-0.6108,-0.6108,-0.6113,0,0,-0.6109,-0.6109,0,0,0,0,0,0,0,0,-0.6087,-0.6088,-0.6095,-0.6095,-0.6095,-0.61,-0.6099,-0.6105,-0.6101,-0.6099,-0.61,-0.61,-0.6105,-0.6106,-0.6107,-0.6114,-0.6114,-0.6109,-0.611,-0.611,-0.611,0,0,0,0,0,0,0,-0.6087,-0.6087,-0.6097,-0.6095,-0.6095,-0.6095,-0.6096,-0.61,-0.6103,-0.6099,-0.6099,-0.61,-0.6105,-0.6107,-0.6107,-0.6114,-0.6109,-0.611,-0.611,-0.611,-0.6125,-0.6125,0,0,0,0,0,0,-0.6086,-0.6087,-0.6097,-0.6097,-0.6091,-0.6095,-0.6096,-0.6098,-0.6102,-0.6103,-0.61,-0.6099,-0.6106,-0.6107,-0.6108,-0.6114,-0.611,-0.611,-0.611,-0.6125,-0.6125,-0.6125,0,0,0,0,0,0,-0.6086,-0.6087,-0.6097,-0.6092,-0.6093,-0.6096,-0.6098,-0.6099,-0.61,-0.6103,-0.6104,-0.6101,-0.6106,-0.6107,-0.6112,-0.6114,-0.611,-0.6111,-0.6125,-0.6125,-0.6125,-0.6127,0,0,0,0,0,0,-0.6085,-0.6087,-0.6089,-0.6092,-0.6094,-0.6101,-0.6099,-0.6099,-0.6101,-0.6101,-0.6104,-0.6105,-0.6106,-0.6111,-0.6112,-0.6115,-0.6111,-0.6124,-0.6125,-0.6125,-0.6127,-0.6127,-0.6128,0,0,0,0,0,-0.6085,-0.609,-0.6089,-0.609,-0.6096,-0.6101,-0.6102,-0.6103,-0.6101,-0.6103,-0.6105,-0.6105,-0.6114,-0.6112,-0.6113,-0.6115,-0.6124,-0.6125,-0.6125,-0.6126,-0.6127,-0.6128,0,0,0,0,0,0,-0.6087,-0.609,-0.609,-0.6095,-0.6098,-0.6101,-0.6104,-0.6103,-0.6107,-0.6106,-0.6107,-0.6108,-0.6113,-0.6115,-0.6112,-0.6121,-0.6119,-0.6119,-0.6119,-0.612,-0.6121,-0.612,-0.6111,0,0,0,0,0,-0.6088,-0.6091,-0.6094,-0.6099,-0.61,-0.6102,-0.6104,-0.6104,-0.6107,-0.6108,-0.611,-0.6112,-0.6116,-0.6118,-0.6121,-0.6127,-0.6127,-0.6129,-0.6129,-0.613,-0.613,-0.6133,-0.6134,-0.6126,-0.6126,-0.6126,0,0,-0.609,-0.6092,-0.6095,-0.6099,-0.6101,-0.6104,-0.6103,-0.6106,-0.6109,-0.6108,-0.6113,-0.6114,-0.6117,-0.6122,-0.6125,-0.6124,-0.6132,-0.613,-0.613,-0.6131,-0.6133,-0.6134,-0.6135,-0.6126,-0.6126,-0.6126,0,0,-0.6097,-0.6099,-0.6103,-0.6104,-0.6107,-0.6108,-0.6109,-0.6112,-0.6113,-0.6117,-0.6117,-0.612,-0.6125,-0.6127,-0.6129,-0.6135,-0.6134,-0.6136,-0.6138,-0.6141,-0.6141,-0.6142,-0.6144,-0.6145,-0.6136,-0.6136,-0.6136,0,-0.6099,-0.6105,-0.6105,-0.6108,-0.611,-0.6109,-0.6113,-0.6115,-0.6119,-0.612,-0.6119,-0.6126,-0.6128,-0.6133,-0.6134,-0.6136,-0.6137,-0.6136,-0.6141,-0.6142,-0.6142,-0.6144,-0.6145,-0.6136,-0.6136,-0.6136,-0.6136,0,-0.6108,-0.6111,-0.6114,-0.6117,-0.6119,-0.6123,-0.6124,-0.6126,-0.6126,-0.6127,-0.6131,-0.6133,-0.6136,-0.6137,-0.6138,-0.6143,-0.6142,-0.6141,-0.6139,-0.6143,-0.6145,-0.6146,-0.6136,-0.6136,-0.6136,-0.6136,0,0,-0.6116,-0.6119,-0.612,-0.6121,-0.6124,-0.6126,-0.613,-0.6133,-0.6134,-0.6136,-0.6139,-0.6144,-0.6143,-0.6144,-0.6145,-0.6147,-0.6151,-0.6146,-0.6146,-0.6147,-0.6156,-0.6157,-0.6158,-0.615,-0.6151,-0.6151,-0.6156,0,-0.6123,-0.6129,-0.6129,-0.6135,-0.6137,-0.6136,-0.6139,-0.6141,-0.6141,-0.6144,-0.6145,-0.6148,-0.6146,-0.6147,-0.6149,-0.615,-0.6153,-0.615,-0.6153,-0.6153,-0.6153,-0.6159,-0.616,-0.6165,-0.6157,-0.6157,-0.6157,0,-0.6132,-0.6134,-0.614,-0.6141,-0.6142,-0.6145,-0.6147,-0.6149,-0.6151,-0.6151,-0.6153,-0.6153,-0.6156,-0.6153,-0.6158,-0.6155,-0.6157,-0.6157,-0.6157,-0.6158,-0.6156,-0.616,-0.6167,-0.6168,-0.6158,-0.6158,-0.6158,0,-0.6138,-0.6142,-0.6146,-0.6147,-0.6148,-0.615,-0.6151,-0.6152,-0.6154,-0.6156,-0.6157,-0.6159,-0.616,-0.6162,-0.6162,-0.616,-0.6166,-0.6164,-0.6167,-0.6167,-0.6169,-0.6169,-0.6176,-0.6169,-0.6169,-0.6169,-0.6169,0,-0.6145,-0.6149,-0.6148,-0.6151,-0.6154,-0.6154,-0.6158,-0.6158,-0.6159,-0.6162,-0.616,-0.6163,-0.6163,-0.6165,-0.6165,-0.6168,-0.6169,-0.6169,-0.6169,-0.6169,-0.6169,-0.6171,-0.6171,-0.6169,-0.6169,-0.6169,-0.6169,0,-0.6153,-0.6152,-0.6157,-0.6157,-0.6158,-0.616,-0.6161,-0.6163,-0.6163,-0.6166,-0.6167,-0.6167,-0.6169,-0.6169,-0.6172,-0.6172,-0.6177,-0.6176,-0.6176,-0.6176,-0.6179,-0.6179,-0.6187,-0.6189,-0.6181,-0.6181,-0.6181,0,-0.6158,-0.6161,-0.6161,-0.6163,-0.6163,-0.6166,-0.6167,-0.6166,-0.6168,-0.6169,-0.6171,-0.6173,-0.6175,-0.6179,-0.6179,-0.6181,-0.6181,-0.6184,-0.6181,-0.6181,-0.6181,-0.6181,-0.6181,-0.6185,-0.6185,-0.6185,-0.6185,0,-0.6167,-0.6166,-0.6168,-0.617,-0.6171,-0.6173,-0.6174,-0.6175,-0.6174,-0.6176,-0.6178,-0.6179,-0.6182,-0.6184,-0.6186,-0.6186,-0.6185,-0.6185,-0.6186,-0.6187,-0.6187,-0.6187,-0.6178,-0.6185,-0.6185,-0.6185,-0.6185,-0.6185,-0.6174,-0.6176,-0.6176,-0.6178,-0.6179,-0.618,-0.6182,-0.6182,-0.6183,-0.6185,-0.6184,-0.6187,-0.6188,-0.619,-0.619,-0.6192,-0.6191,-0.6192,-0.6193,-0.6193,-0.6193,-0.6186,-0.6193,-0.6193,-0.6193,-0.6193,-0.6193,0,-0.6183,-0.6183,-0.6185,-0.6186,-0.6187,-0.6186,-0.6186,-0.6188,-0.619,-0.619,-0.6192,-0.6194,-0.6196,-0.6196,-0.6198,-0.6199,-0.6199,-0.62,-0.62,-0.62,-0.6194,-0.6193,-0.62,-0.62,-0.62,-0.62,-0.62,-0.62,-0.6188,-0.6191,-0.619,-0.6194,-0.6194,-0.6196,-0.6197,-0.6197,-0.6198,-0.62,-0.6201,-0.6201,-0.6201,-0.6203,-0.6204,-0.6204,-0.6205,-0.6206,-0.6206,-0.6201,-0.62,-0.62,-0.6199,-0.6206,-0.6206,-0.6212,-0.6212,-0.6212]}]]